DW8565 Weather Reports


Display with metric or nautical units.
time (UTC)temp
F
wind
direction
speed
MPH
gust
MPH
rain 1hr
in
rain 24hr
in
rain mn
in
humidity
%
barometer
mb
20260905082038 75 298 1.0 4.0 0.00 0.00 0.00 74 1008.9
20260905081540 75 283 1.0 4.0 0.00 0.00 0.00 74 1008.9
20260905081037 75 306 1.0 4.0 0.00 0.00 0.00 74 1008.9
20260905080538 75 277 1.0 4.0 0.00 0.00 0.00 74 1008.9
20260905080039 75 281 0.0 3.0 0.00 0.00 0.00 74 1008.9
20260905075539 75 273 1.0 3.0 0.00 0.00 0.00 75 1008.8
20260905075038 75 273 1.0 3.0 0.00 0.00 0.00 75 1008.9
20260905074538 75 273 2.0 4.0 0.00 0.00 0.00 75 1008.9
20260905074309 75 267 2.0 4.0 0.00 0.00 0.00 75 1009.1
20260905073537 75 265 2.0 4.0 0.00 0.00 0.00 75 1009.1
20260905073307 75 250 1.0 3.0 0.00 0.00 0.00 73 1009.0
20260905072533 75 238 1.0 2.0 0.00 0.00 0.00 72 1009.1
20260905072032 75 237 1.0 2.0 0.00 0.00 0.00 72 1009.1
20260905071533 75 237 1.0 3.0 0.00 0.00 0.00 72 1009.1
20260905071303 75 236 1.0 3.0 0.00 0.00 0.00 72 1009.2
20260905070530 75 234 1.0 2.0 0.00 0.00 0.00 73 1009.3
20260905070303 75 234 1.0 3.0 0.00 0.00 0.00 73 1009.2
20260905065529 75 234 2.0 3.0 0.00 0.00 0.00 73 1009.3
20260905065028 75 230 2.0 3.0 0.00 0.00 0.00 74 1009.4
20260905064527 75 227 3.0 5.0 0.00 0.00 0.00 73 1009.5
20260905064028 75 227 3.0 5.0 0.00 0.00 0.00 73 1009.5
20260905063530 75 238 2.0 4.0 0.00 0.00 0.00 72 1009.6
20260905063255 75 318 1.0 3.0 0.00 0.00 0.00 71 1009.6
20260905062518 75 325 1.0 5.0 0.00 0.00 0.00 71 1009.6
20260905062243 76 17 2.0 7.0 0.00 0.00 0.00 71 1009.5
20260905061506 76 279 3.0 8.0 0.00 0.00 0.00 72 1009.6
20260905061000 77 69 2.0 8.0 0.00 0.00 0.00 73 1009.5
20260905060453 77 347 2.0 5.0 0.00 0.00 0.00 73 1009.5
20260905055952 78 269 1.0 3.0 0.00 0.00 0.00 74 1009.6
20260905055707 78 275 1.0 3.0 0.00 0.00 0.00 73 1009.6
20260905054931 78 16 0.0 2.0 0.00 0.00 0.00 73 1009.4
20260905054655 78 14 1.0 7.0 0.00 0.00 0.00 74 1009.4
20260905053920 78 21 2.0 7.0 0.00 0.01 0.00 74 1009.4
20260905053413 78 11 1.0 3.0 0.00 0.01 0.00 75 1009.3
20260905052907 78 11 1.0 3.0 0.00 0.01 0.00 75 1009.4
20260905052401 78 11 0.0 2.0 0.00 0.01 0.00 75 1009.5
20260905051856 78 11 1.0 3.0 0.00 0.01 0.00 75 1009.4
20260905051350 78 11 0.0 3.0 0.00 0.01 0.00 74 1009.4
20260905051114 78 10 0.0 1.0 0.00 0.01 0.00 74 1009.6
20260905050338 78 11 1.0 3.0 0.00 0.01 0.00 74 1009.7
20260905045831 78 10 2.0 4.0 0.00 0.01 0.00 73 1009.7
20260905045325 78 9 2.0 5.0 0.00 0.01 0.00 72 1009.8
20260905044819 79 9 2.0 5.0 0.00 0.01 0.00 71 1009.9
20260905044314 79 289 1.0 7.0 0.00 0.01 0.00 72 1010.0
20260905043807 79 280 2.0 7.0 0.00 0.01 0.00 73 1010.1
20260905043302 78 224 3.0 8.0 0.00 0.01 0.00 73 1010.0
20260905042756 79 246 4.0 8.0 0.00 0.01 0.00 74 1010.1
20260905042250 80 234 2.0 7.0 0.00 0.01 0.00 75 1010.1
20260905041744 79 272 1.0 4.0 0.00 0.01 0.00 73 1010.1
20260905041237 79 284 1.0 3.0 0.00 0.01 0.00 73 1010.1
20260905040731 80 288 1.0 3.0 0.00 0.01 0.00 73 1010.0
20260905040226 79 269 1.0 2.0 0.00 0.01 0.00 73 1009.9
20260905035720 79 272 1.0 2.0 0.00 0.01 0.01 73 1010.1
20260905035214 79 275 1.0 2.0 0.00 0.01 0.01 74 1010.0
20260905034707 79 277 1.0 3.0 0.00 0.01 0.01 75 1010.0
20260905034202 80 277 1.0 3.0 0.00 0.01 0.01 75 1010.0
20260905033656 79 279 1.0 3.0 0.00 0.01 0.01 75 1010.1
20260905033150 79 280 1.0 3.0 0.00 0.01 0.01 75 1010.1
20260905032644 80 279 1.0 3.0 0.00 0.01 0.01 75 1010.1
20260905032138 80 287 1.0 3.0 0.00 0.01 0.01 76 1010.0
20260905031644 80 292 1.0 3.0 0.00 0.01 0.01 76 1010.0
20260905031356 80 301 1.0 3.0 0.00 0.01 0.01 76 1010.0
20260905030851 80 306 1.0 3.0 0.00 0.01 0.01 76 1009.9
20260905030114 80 309 1.0 4.0 0.00 0.01 0.01 76 1010.0
20260905025608 80 319 1.0 4.0 0.00 0.01 0.01 76 1010.0
20260905025102 80 302 1.0 2.0 0.00 0.01 0.01 76 1010.0
20260905024556 80 278 1.0 2.0 0.00 0.01 0.01 76 1010.0
20260905024050 80 281 1.0 3.0 0.00 0.01 0.01 76 1009.9
20260905023543 80 279 2.0 3.0 0.00 0.01 0.01 76 1009.8
20260905023038 80 279 2.0 3.0 0.00 0.01 0.01 76 1009.9
20260905022531 80 282 1.0 3.0 0.00 0.01 0.01 75 1009.8
20260905022026 80 280 1.0 3.0 0.00 0.01 0.01 75 1009.8
20260905021520 80 281 1.0 3.0 0.00 0.01 0.01 75 1009.9
20260905021014 80 279 1.0 4.0 0.00 0.01 0.01 75 1010.0
20260905020507 80 280 1.0 4.0 0.00 0.01 0.01 75 1010.1
20260905020001 81 283 1.0 3.0 0.00 0.01 0.01 75 1010.0
20260905015455 81 283 1.0 3.0 0.00 0.01 0.01 75 1010.0
20260905014949 81 282 1.0 3.0 0.00 0.01 0.01 75 1010.0
20260905014444 81 282 2.0 3.0 0.00 0.01 0.01 75 1010.1
20260905013937 81 281 2.0 3.0 0.00 0.01 0.01 75 1010.1
20260905013431 81 288 2.0 6.0 0.00 0.01 0.01 75 1010.0
20260905012925 81 288 2.0 6.0 0.00 0.01 0.01 75 1010.1
20260905012420 81 271 2.0 4.0 0.00 0.01 0.01 75 1010.1
20260905011913 81 280 2.0 6.0 0.00 0.01 0.01 75 1010.1
20260905011407 81 279 2.0 6.0 0.00 0.01 0.01 75 1010.1
20260905010902 81 274 2.0 6.0 0.00 0.01 0.01 75 1010.1
20260905010355 81 279 3.0 6.0 0.00 0.01 0.01 75 1010.1
20260905010121 81 278 3.0 6.0 0.00 0.01 0.01 75 1010.0
20260905010013 81 284 3.0 6.0 0.00 0.01 0.01 74 1009.9
20260905004838 81 269 3.0 6.0 0.00 0.01 0.01 74 1009.8
20260905004331 81 257 3.0 6.0 0.00 0.01 0.01 74 1009.9
20260905004057 81 286 3.0 7.0 0.00 0.01 0.01 74 1009.8
20260905003319 82 282 3.0 7.0 0.00 0.01 0.01 74 1009.6
20260905002813 82 271 2.0 6.0 0.00 0.01 0.01 74 1009.5
20260905002308 82 265 2.0 6.0 0.00 0.01 0.01 74 1009.5
20260905001802 82 282 2.0 5.0 0.00 0.01 0.01 74 1009.4
20260905001256 82 223 2.0 5.0 0.00 0.01 0.01 74 1009.3
20260905000749 82 248 2.0 4.0 0.00 0.01 0.01 74 1009.3
20260905000516 82 284 2.0 4.0 0.00 0.01 0.01 73 1009.5
20260904235738 82 259 2.0 4.0 0.00 0.01 0.01 73 1009.4
20260904235232 83 254 2.0 4.0 0.00 0.01 0.01 72 1009.4
20260904234730 83 286 2.0 4.0 0.00 0.01 0.01 70 1009.5
20260904234227 83 287 1.0 4.0 0.00 0.01 0.01 70 1009.5
20260904233727 83 288 1.0 2.0 0.00 0.01 0.01 70 1009.5
20260904233226 83 289 1.0 3.0 0.00 0.01 0.01 69 1009.6
20260904232727 83 290 1.0 3.0 0.00 0.01 0.01 69 1009.8
20260904232501 83 277 1.0 3.0 0.00 0.01 0.01 69 1009.6
20260904231727 83 277 1.0 3.0 0.00 0.01 0.01 69 1009.8
20260904231500 83 279 1.0 3.0 0.00 0.01 0.01 69 1009.8
20260904230725 84 278 1.0 3.0 0.00 0.01 0.01 69 1009.8
20260904230500 84 280 1.0 3.0 0.00 0.01 0.01 68 1009.8
20260904225727 84 281 1.0 3.0 0.00 0.01 0.01 68 1009.8
20260904225224 84 281 1.0 4.0 0.00 0.01 0.01 67 1009.8
20260904224721 84 281 1.0 4.0 0.00 0.01 0.01 67 1009.7
20260904224221 84 294 1.0 3.0 0.00 0.01 0.01 68 1009.7
20260904223722 84 282 1.0 3.0 0.00 0.01 0.01 68 1009.6
20260904223218 84 279 2.0 4.0 0.00 0.01 0.01 68 1009.7
20260904222719 84 279 2.0 4.0 0.00 0.01 0.01 68 1009.7
20260904222221 84 273 1.0 3.0 0.00 0.01 0.01 68 1009.7
20260904221714 84 281 1.0 4.0 0.00 0.01 0.01 69 1009.7
20260904221444 83 341 2.0 6.0 0.00 0.01 0.01 71 1009.6
20260904220708 83 329 2.0 6.0 0.00 0.01 0.01 74 1009.6
20260904220207 82 267 1.0 5.0 0.00 0.01 0.01 78 1009.7
20260904215707 82 159 1.0 4.0 0.00 0.01 0.01 80 1009.5
20260904215205 81 159 2.0 4.0 0.00 0.01 0.01 81 1009.7
20260904214705 81 164 2.0 6.0 0.00 0.01 0.01 81 1009.8
20260904214437 81 153 3.0 6.0 0.00 0.01 0.01 81 1009.8
20260904213934 81 157 3.0 6.0 0.00 0.01 0.01 80 1009.9
20260904213204 82 160 3.0 6.0 0.00 0.01 0.01 80 1009.9
20260904212700 82 165 3.0 5.0 0.00 0.01 0.01 80 1009.7
20260904212201 82 155 3.0 7.0 0.00 0.01 0.01 81 1009.6
20260904211701 82 149 3.0 7.0 0.00 0.01 0.01 80 1009.5
20260904211435 82 153 3.0 7.0 0.00 0.01 0.01 81 1009.5
20260904210702 82 174 3.0 7.0 0.00 0.01 0.01 81 1009.6
20260904210204 81 151 3.0 7.0 0.00 0.01 0.01 81 1009.7
20260904205659 82 153 2.0 6.0 0.00 0.01 0.01 80 1009.8
20260904205200 82 136 2.0 6.0 0.00 0.01 0.01 80 1009.8
20260904204701 82 157 4.0 6.0 0.00 0.01 0.01 80 1009.8
20260904204200 82 167 4.0 6.0 0.00 0.01 0.01 79 1009.9
20260904203658 82 153 3.0 6.0 0.00 0.01 0.01 79 1010.0
20260904203200 82 171 2.0 7.0 0.00 0.01 0.01 78 1010.0
20260904202700 82 169 3.0 7.0 0.00 0.01 0.01 77 1009.8
20260904202159 82 169 3.0 6.0 0.00 0.01 0.01 76 1009.9
20260904201654 82 140 3.0 7.0 0.00 0.01 0.01 76 1009.9
20260904201155 82 168 4.0 9.0 0.00 0.01 0.01 76 1010.1
20260904200657 82 146 3.0 9.0 0.00 0.01 0.01 76 1010.2
20260904200155 82 173 3.0 7.0 0.00 0.01 0.01 78 1010.2
20260904195657 81 168 4.0 8.0 0.00 0.01 0.01 79 1010.3
20260904195157 81 161 5.0 8.0 0.00 0.01 0.01 79 1010.4
20260904194655 81 161 5.0 8.0 0.00 0.01 0.01 79 1010.5
20260904194157 81 161 4.0 8.0 0.00 0.01 0.01 79 1010.5
20260904193658 81 162 4.0 8.0 0.00 0.01 0.01 79 1010.6
20260904193152 80 158 4.0 7.0 0.00 0.01 0.01 79 1010.7
20260904192653 80 150 4.0 7.0 0.00 0.01 0.01 79 1010.8
20260904192152 80 147 4.0 8.0 0.00 0.01 0.01 79 1010.8
20260904191653 80 174 4.0 8.0 0.00 0.01 0.01 79 1010.8
20260904191150 81 175 4.0 7.0 0.00 0.01 0.01 79 1010.8
20260904190650 80 194 4.0 7.0 0.00 0.01 0.01 79 1010.8
20260904190423 81 172 4.0 8.0 0.00 0.01 0.01 79 1010.8
20260904185651 81 179 4.0 8.0 0.00 0.01 0.01 78 1010.8
20260904185154 82 173 3.0 6.0 0.00 0.01 0.01 77 1010.9
20260904185149 82 142 3.0 6.0 0.00 0.01 0.01 77 1010.9
20260904184147 82 148 3.0 6.0 0.00 0.01 0.01 77 1011.0
20260904183645 82 140 2.0 6.0 0.00 0.01 0.01 77 1011.1
20260904183144 82 126 3.0 6.0 0.00 0.01 0.01 77 1011.1
20260904182645 82 128 3.0 6.0 0.00 0.01 0.01 77 1011.0
20260904182417 82 128 3.0 7.0 0.00 0.01 0.01 76 1011.0
20260904181924 82 165 3.0 7.0 0.00 0.01 0.01 75 1011.0
20260904181144 83 182 3.0 7.0 0.00 0.01 0.01 75 1011.0
20260904180645 83 143 3.0 7.0 0.00 0.01 0.01 75 1011.0
20260904180145 83 136 3.0 7.0 0.00 0.01 0.01 74 1011.0
20260904175645 83 156 3.0 7.0 0.00 0.01 0.01 75 1011.0
20260904175146 83 140 3.0 7.0 0.00 0.01 0.01 74 1011.0
20260904174639 83 156 2.0 6.0 0.00 0.01 0.01 74 1011.1
20260904174133 83 154 2.0 5.0 0.00 0.01 0.01 74 1011.0
20260904173630 83 151 3.0 6.0 0.00 0.01 0.01 75 1011.1
20260904173353 82 164 3.0 7.0 0.00 0.01 0.01 74 1011.1
20260904172616 83 148 2.0 7.0 0.00 0.01 0.01 75 1011.1
20260904172110 82 141 3.0 8.0 0.00 0.01 0.01 75 1011.1
20260904171610 81 51 4.0 8.0 0.00 0.01 0.01 75 1011.0
20260904171111 82 88 4.0 8.0 0.00 0.01 0.01 74 1010.9
20260904170611 82 78 4.0 8.0 0.00 0.01 0.01 74 1010.9
20260904170107 82 86 4.0 7.0 0.00 0.01 0.01 72 1010.8
20260904165607 83 84 4.0 8.0 0.00 0.01 0.01 72 1010.8
20260904165104 83 98 4.0 8.0 0.00 0.01 0.01 70 1010.8
20260904164608 85 94 4.0 9.0 0.00 0.01 0.01 65 1010.8
20260904164337 88 68 4.0 9.0 0.00 0.01 0.01 54 1011.0
20260904163607 89 47 4.0 9.0 0.00 0.01 0.01 52 1010.9
20260904163112 90 162 3.0 9.0 0.00 0.01 0.01 50 1010.9
20260904162604 90 340 3.0 9.0 0.00 0.01 0.01 50 1011.0
20260904162103 90 131 3.0 11.0 0.00 0.01 0.01 50 1011.1
20260904161840 89 11 3.0 11.0 0.00 0.01 0.01 51 1011.0
20260904161100 89 255 4.0 11.0 0.00 0.01 0.01 53 1011.0
20260904160602 89 183 5.0 11.0 0.00 0.01 0.01 53 1011.0
20260904160103 90 19 4.0 12.0 0.00 0.01 0.01 52 1011.1
20260904155555 90 34 4.0 12.0 0.00 0.01 0.01 52 1011.2
20260904155327 90 194 3.0 7.0 0.00 0.01 0.01 53 1011.2
20260904154543 90 130 3.0 6.0 0.00 0.01 0.01 53 1011.2
20260904154310 90 334 3.0 7.0 0.00 0.01 0.01 53 1011.2
20260904153535 89 66 3.0 12.0 0.00 0.01 0.01 54 1011.2
20260904153257 89 21 3.0 12.0 0.00 0.01 0.01 55 1011.2
20260904152519 89 0 3.0 8.0 0.00 0.01 0.01 55 1011.2
20260904152013 89 11 3.0 8.0 0.00 0.01 0.01 55 1011.1
20260904151507 89 337 3.0 10.0 0.00 0.01 0.01 57 1011.1
20260904151231 88 51 3.0 10.0 0.00 0.01 0.01 58 1011.2
20260904150454 88 20 3.0 12.0 0.00 0.01 0.01 59 1011.1
20260904145949 88 77 3.0 12.0 0.00 0.01 0.01 60 1011.1
20260904145443 88 104 3.0 7.0 0.00 0.01 0.01 61 1011.2
20260904144938 87 271 3.0 10.0 0.00 0.01 0.01 61 1011.1
20260904144431 87 342 3.0 10.0 0.00 0.01 0.01 63 1011.1
20260904143925 87 254 3.0 9.0 0.00 0.01 0.01 65 1011.1
20260904143419 86 267 3.0 9.0 0.00 0.01 0.01 66 1011.1
20260904142916 86 271 3.0 10.0 0.00 0.01 0.01 66 1011.1
20260904142408 85 9 4.0 10.0 0.00 0.01 0.01 67 1011.1
20260904141901 85 81 3.0 9.0 0.00 0.01 0.01 68 1011.1
20260904141627 85 265 3.0 8.0 0.00 0.01 0.01 69 1011.2
20260904140849 84 241 3.0 8.0 0.00 0.01 0.01 70 1011.2
20260904140343 84 257 4.0 10.0 0.00 0.01 0.01 71 1011.2
20260904135836 84 312 3.0 10.0 0.00 0.01 0.01 69 1011.2
20260904135332 84 280 3.0 8.0 0.00 0.01 0.01 71 1011.2
20260904134825 83 5 3.0 8.0 0.00 0.01 0.01 72 1011.1
20260904134320 83 279 2.0 8.0 0.00 0.01 0.01 72 1011.2
20260904133814 82 258 3.0 9.0 0.00 0.01 0.01 74 1011.1
20260904133307 81 275 5.0 12.0 0.00 0.01 0.01 75 1011.1
20260904132801 81 246 4.0 12.0 0.00 0.01 0.01 76 1011.1
20260904132254 81 238 4.0 9.0 0.00 0.01 0.01 76 1011.1
20260904131748 80 286 5.0 13.0 0.00 0.01 0.01 77 1011.0
20260904131248 80 274 6.0 13.0 0.00 0.01 0.01 77 1011.0
20260904130737 80 272 6.0 12.0 0.00 0.01 0.01 77 1011.0
20260904130231 80 306 6.0 12.0 0.00 0.01 0.01 78 1011.0
20260904125727 80 277 6.0 12.0 0.00 0.01 0.01 79 1011.0
20260904125220 79 274 7.0 12.0 0.00 0.01 0.01 79 1011.0
20260904124945 79 280 7.0 13.0 0.00 0.01 0.01 79 1011.0
20260904124213 79 240 6.0 13.0 0.00 0.01 0.01 79 1011.0
20260904123701 79 270 5.0 10.0 0.00 0.01 0.01 80 1011.0
20260904123155 78 279 5.0 10.0 0.00 0.01 0.01 81 1010.9
20260904122655 78 53 6.0 13.0 0.00 0.01 0.01 81 1011.1
20260904122143 78 261 7.0 13.0 0.00 0.01 0.01 82 1011.0
20260904121636 77 279 7.0 13.0 0.00 0.01 0.01 82 1011.0
20260904121137 77 283 7.0 13.0 0.00 0.01 0.01 83 1011.0
20260904120900 77 309 6.0 12.0 0.00 0.01 0.01 83 1011.0
20260904120800 77 250 6.0 13.0 0.00 0.01 0.01 84 1010.8
20260904120534 77 285 6.0 13.0 0.00 0.01 0.01 84 1010.9
20260904115112 77 290 6.0 13.0 0.00 0.01 0.01 84 1010.8
20260904114601 76 221 7.0 13.0 0.00 0.01 0.01 85 1010.8
20260904114054 76 264 7.0 12.0 0.00 0.01 0.01 85 1010.7
20260904113831 76 246 7.0 12.0 0.00 0.01 0.01 85 1010.6
20260904113053 76 278 7.0 12.0 0.00 0.01 0.01 86 1010.7
20260904112824 76 264 6.0 12.0 0.00 0.01 0.01 86 1010.6
20260904112058 76 277 7.0 14.0 0.00 0.01 0.01 86 1010.6
20260904111552 76 290 7.0 14.0 0.00 0.01 0.01 86 1010.6
20260904111052 76 286 6.0 12.0 0.00 0.01 0.01 86 1010.6
20260904110552 76 257 5.0 12.0 0.00 0.01 0.01 87 1010.6
20260904110052 76 306 5.0 12.0 0.00 0.01 0.01 87 1010.4
20260904105552 76 212 5.0 10.0 0.00 0.01 0.01 87 1010.4
20260904105052 76 250 4.0 9.0 0.00 0.01 0.01 87 1010.3
20260904104553 76 260 6.0 12.0 0.00 0.01 0.01 87 1010.4
20260904104052 76 258 6.0 12.0 0.00 0.01 0.01 87 1010.4
20260904103551 76 240 4.0 11.0 0.00 0.01 0.01 87 1010.4
20260904103058 76 265 5.0 10.0 0.00 0.01 0.01 87 1010.6
20260904103052 76 243 4.0 10.0 0.00 0.01 0.01 88 1010.5
20260904102055 77 257 5.0 9.0 0.00 0.01 0.01 88 1010.5
20260904101600 77 231 4.0 8.0 0.00 0.02 0.01 88 1010.5
20260904101049 77 232 7.0 12.0 0.00 0.03 0.01 87 1010.4
20260904100816 77 225 8.0 12.0 0.00 0.05 0.01 87 1010.3
20260904100040 77 231 8.0 14.0 0.00 0.06 0.01 87 1010.2
20260904095530 77 245 8.0 15.0 0.00 0.07 0.01 87 1010.2
20260904095024 77 221 8.0 15.0 0.00 0.08 0.01 87 1010.3
20260904094526 77 250 8.0 13.0 0.00 0.09 0.01 86 1010.3
20260904094519 77 238 8.0 16.0 0.00 0.08 0.01 87 1010.2
20260904093506 77 224 7.0 13.0 0.00 0.09 0.01 86 1010.3
20260904093006 78 242 7.0 13.0 0.00 0.09 0.01 86 1010.2
20260904092457 78 209 7.0 13.0 0.00 0.09 0.01 86 1010.3
20260904091949 78 242 7.0 15.0 0.00 0.09 0.01 86 1010.2
20260904091442 78 260 8.0 15.0 0.00 0.10 0.01 86 1010.2
20260904090937 78 236 8.0 14.0 0.00 0.11 0.01 86 1010.3
20260904090431 78 236 9.0 15.0 0.00 0.15 0.01 86 1010.3
20260904085930 78 246 9.0 15.0 0.00 0.16 0.01 86 1010.3
20260904085429 78 234 8.0 16.0 0.00 0.17 0.01 86 1010.3
20260904084937 78 229 8.0 13.0 0.00 0.17 0.01 86 1010.2
20260904084929 78 238 8.0 16.0 0.00 0.17 0.01 86 1010.3
20260904083929 78 281 7.0 13.0 0.00 0.17 0.01 86 1010.2
20260904083430 78 248 9.0 14.0 0.00 0.17 0.01 86 1010.2
20260904083159 78 247 10.0 17.0 0.00 0.17 0.01 86 1010.1